Regional Weather Roundup
Issued by NWS

Home | Current Version | Previous Version | Graphics & Text | Print | Product List | Glossary On
Versions: 1 2 3 4 5 6 7 8 9 10 11 12 13 14 15 16 17 18 19 20 21 22 23 24 25 26 27 28 29 30 31 32 33 34 35 36 37 38 39 40 41 42 43 44 45 46 47 48 49 50
000
ASUS43 KBIS 170702
RWRND

NORTH DAKOTA REGIONAL WEATHER ROUNDUP
NATIONAL WEATHER SERVICE BISMARCK ND
100 AM CST TUE JAN 17 2017

NOTE: "FAIR" INDICATES FEW OR NO CLOUDS BELOW 12,000 FEET WITH NO
SIGNIFICANT WEATHER AND/OR OBSTRUCTIONS TO VISIBILITY.


NDZ001>003-009>011-017-170800-
NORTHWEST NORTH DAKOTA

CITY           SKY/WX    TMP DP  RH WIND       PRES   REMARKS
WILLISTON      FAIR      10   6  84 S3        29.99F
MINOT          FAIR      17  12  80 SW15      29.96F WCI   2
$$

NDZ018>021-031>035-040>046-170800-
SOUTHWEST NORTH DAKOTA

CITY           SKY/WX    TMP DP  RH WIND       PRES   REMARKS
BISMARCK       FAIR       7   2  80 CALM      30.04F
DICKINSON      FAIR      13   7  77 SW7       29.97F WCI   3
GARRISON         N/A      4   1  88 S3        30.00F
HETTINGER ARPT CLOUDY    12   7  80 CALM      30.03F
$$

NDZ004>008-012>016-024-026-027-054-170800-
NORTHEAST NORTH DAKOTA

CITY           SKY/WX    TMP DP  RH WIND       PRES   REMARKS
GRAND FORKS    CLOUDY     1  -3  83 SW6       29.99F WCI -10
GRND FRKS AFB  CLOUDY     2  -2  81 W3        30.00R
DEVILS LAKE    FAIR       8   5  87 W9        29.98F WCI  -5
$$

NDZ022-023-025-028>030-036>039-047>053-170800-
SOUTHEAST NORTH DAKOTA

CITY           SKY/WX    TMP DP  RH WIND       PRES   REMARKS
FARGO          PTCLDY     4   2  91 SE5       30.00F WCI  -5
JAMESTOWN      FAIR      13  10  88 NW12      29.99S WCI  -1
$$





USA.gov is the U.S. government's official web portal to all federal, state and local government web resources and services.